Location: Altleiningen
(49.5078°N, 8.0741°E)
Time: 11:37:17
(UTC+00:00)

SL-4 R/B - Pass Details

Date: 03 March 2021
Orbit: 428 x 663 km, 51.6° (Epoch: 13 April)

Event Time Altitude Azimuth Distance (km) Brightness Sun altitude
Rises 19:50:48 0° 289° (WNW) 2,452 6.7 -25.8°
Reaches altitude 10° 19:53:00 10° 284° (WNW) 1,556 5.3 -26.2°
Enters shadow 19:54:49 27° 269° (W) 877 3.6 -26.4°
